Regional Weather Roundup
Issued by NWS

Home | Current Version | Previous Version | Text Only | Print | Product List | Glossary Off
Versions: 1 2 3 4 5 6 7 8 9 10 11 12 13 14 15 16 17 18 19 20 21 22 23 24 25 26 27 28 29 30 31 32 33 34 35 36 37 38 39 40 41 42 43 44 45 46 47 48 49 50

000
ASUS44 KMEG 282110
RWRTN
TENNESSEE HOURLY STATE WEATHER ROUNDUP
NATIONAL WEATHER SERVICE MEMPHIS TN
400 PM CDT TUE JUL 28 2015

TNZ002-004-019-021-049-052-054-088>092-282200-
WEST TENNESSEE

CITY           SKY/WX    TMP DP  RH WIND       PRES   REMARKS
MEMPHIS INTL   MOSUNNY   96  74  48 VRB5      29.98S HX 107
NWS MEMPHIS      N/A     96 N/A N/A MISG        N/A
JACKSON        SUNNY     96  75  50 W7        29.97F HX 108
DYERSBURG        N/A    N/A N/A N/A MISG        N/A
PARIS          MOSUNNY   91  75  59 W3        29.97F HX 102
LEXINGTON      MOSUNNY   95  75  52 W6        29.96F HX 107
$$

TNZ008-025-027-028-033-062-065-066-282200-
NORTH MIDDLE TENNESSEE

CITY           SKY/WX    TMP DP  RH WIND       PRES   REMARKS
NASHVILLE      CLOUDY    88  75  66 E8        29.98R THUNDER HX  97
CLARKSVILLE    PTSUNNY   93  75  55 W9        29.96S HX 104
SMYRNA         CLOUDY    92  76  59 SE7       29.98F HX 104
CROSSVILLE     PTSUNNY   83  72  69 W20G29    30.06S
$$

TNZ061-075-076-078-094-096-097-282200-
SOUTH MIDDLE TENNESSEE

CITY           SKY/WX    TMP DP  RH WIND       PRES   REMARKS
FAYETTEVILLE     N/A     86  68  54 W10       29.99S
TULLAHOMA      PTSUNNY   73  72  94 S6        30.03F
WINCHESTER     PTSUNNY   81  73  78 N13       30.03R
MCMINNVILLE    SUNNY     81  73  78 N7        30.04F
SHELBYVILLE    SUNNY     88  75  66 S9        30.00F HX  97
$$

TNZ017-018-042-046-047-282200-
NORTHEAST TENNESSEE

CITY           SKY/WX    TMP DP  RH WIND       PRES   REMARKS
TRI CITIES     MOSUNNY   92  67  43 VRB3      29.98F HX  95
ELIZABETHTON   CLEAR     90  66  45 CALM      29.99F HX  92
$$

TNZ012-013-036-069-073-074-282200-
CENTRAL EAST TENNESSEE

CITY           SKY/WX    TMP DP  RH WIND       PRES   REMARKS
KNOXVILLE      PTSUNNY   85  73  67 N7        29.98R HX  91
OAK RIDGE      MOSUNNY   89  73  59 VRB6      29.99F HX  97
GATLINBURG       N/A     90  72  55 W6        29.97R HX  96
MORRISTOWN       N/A     79  72  78 W10       30.03R
$$

TNZ083-085-099-282200-
SOUTHEAST TENNESSEE

CITY           SKY/WX    TMP DP  RH WIND       PRES   REMARKS
CHATTANOOGA    PTSUNNY   80  74  81 SE6       29.98F
$$

SKY/WX REPORTED AS FAIR MEANS FEW OR NO CLOUDS BELOW
12 THOUSAND FEET.



USA.gov is the U.S. government's official web portal to all federal, state and local government web resources and services.